Location: Palomar Mountain Lodge
(33.3110°N, 116.8495°W)
Time: 05:30:51
(UTC-07:00)

MOZHAYETS 4 - Pass Details

Date: 13 April 2026
Orbit: 642 x 659 km, 98.3° (Epoch: 12 May)

Event Time Altitude Azimuth Distance (km) Brightness Sun altitude
Rises 19:47:17 0° 351° (N) 2,949 11.4 -7.0°
Reaches altitude 10° 19:50:15 10° 329° (NNW) 2,036 11.0 -7.6°
Maximum altitude 19:52:52 16° 293° (WNW) 1,686 11.2 -8.1°
Drops below altitude 10° 19:55:30 10° 256° (WSW) 2,031 11.2 -8.7°
Sets 19:58:28 0° 234° (SW) 2,939 11.6 -9.2°
